Time,TemperatureF,DewpointF,PressureIn,WindDirection,WindDirectionDegrees,WindSpeedMPH,WindSpeedGustMPH,Humidity,HourlyPrecipIn,Conditions,Clouds,dailyrainin,SolarRadiationWatts/m^2,SoftwareType,DateUTC
2013-02-23 00:35:00,42.9,38.0,30.10,WSW,248,3.0,10.0,82,0.00,,,0.00,0,weatherlink.com 1.10,2013-02-23 08:35:00,
2013-02-23 00:47:00,42.9,38.0,30.10,WNW,296,2.0,6.0,82,0.00,,,0.00,0,weatherlink.com 1.10,2013-02-23 08:47:00,
2013-02-23 01:01:00,42.9,38.0,30.10,West,260,2.0,4.0,83,0.00,,,0.00,0,weatherlink.com 1.10,2013-02-23 09:01:00,
2013-02-23 01:16:00,43.3,39.0,30.09,NW,305,2.0,6.0,84,0.00,,,0.00,0,weatherlink.com 1.10,2013-02-23 09:16:00,
2013-02-23 01:32:00,44.1,39.0,30.09,NW,316,3.0,7.0,83,0.00,,,0.00,0,weatherlink.com 1.10,2013-02-23 09:32:00,
2013-02-23 01:47:00,44.8,40.0,30.08,SW,233,9.0,10.0,83,0.00,,,0.00,0,weatherlink.com 1.10,2013-02-23 09:47:00,
2013-02-23 02:01:00,45.4,40.0,30.07,West,273,2.0,8.0,82,0.00,,,0.00,0,weatherlink.com 1.10,2013-02-23 10:01:00,
2013-02-23 02:17:00,45.3,40.0,30.07,WSW,257,2.0,7.0,82,0.00,,,0.00,0,weatherlink.com 1.10,2013-02-23 10:17:00,
2013-02-23 02:32:00,45.1,40.0,30.07,NW,306,2.0,8.0,82,0.00,,,0.00,0,weatherlink.com 1.10,2013-02-23 10:32:00,
2013-02-23 02:47:00,45.1,40.0,30.07,WNW,285,3.0,6.0,82,0.00,,,0.00,0,weatherlink.com 1.10,2013-02-23 10:47:00,
2013-02-23 03:02:00,45.1,41.0,30.06,WNW,284,6.0,9.0,84,0.00,,,0.00,0,weatherlink.com 1.10,2013-02-23 11:02:00,
2013-02-23 03:17:00,44.9,41.0,30.06,West,267,3.0,11.0,85,0.00,,,0.00,0,weatherlink.com 1.10,2013-02-23 11:17:00,
2013-02-23 03:33:00,44.3,40.0,30.07,WNW,294,2.0,11.0,86,0.00,,,0.00,0,weatherlink.com 1.10,2013-02-23 11:33:00,
2013-02-23 03:49:00,43.8,40.0,30.07,WNW,300,1.0,3.0,86,0.00,,,0.00,0,weatherlink.com 1.10,2013-02-23 11:49:00,
2013-02-23 04:02:00,42.7,39.0,30.06,WSW,257,4.0,6.0,88,0.00,,,0.00,0,weatherlink.com 1.10,2013-02-23 12:02:00,
2013-02-23 04:17:00,42.7,39.0,30.06,NNW,344,2.0,8.0,87,0.00,,,0.00,0,weatherlink.com 1.10,2013-02-23 12:17:00,
2013-02-23 04:32:00,41.9,38.0,30.07,WNW,298,1.0,5.0,87,0.00,,,0.00,0,weatherlink.com 1.10,2013-02-23 12:32:00,
2013-02-23 04:47:00,41.4,38.0,30.07,West,273,4.0,6.0,88,0.00,,,0.00,0,weatherlink.com 1.10,2013-02-23 12:47:00,
2013-02-23 05:02:00,41.0,38.0,30.07,SW,235,1.0,7.0,88,0.00,,,0.00,0,weatherlink.com 1.10,2013-02-23 13:02:00,
2013-02-23 05:17:00,40.3,37.0,30.07,SSE,161,2.0,3.0,89,0.00,,,0.00,0,weatherlink.com 1.10,2013-02-23 13:17:00,
2013-02-23 05:32:00,39.6,37.0,30.08,SSE,156,1.0,3.0,89,0.00,,,0.00,0,weatherlink.com 1.10,2013-02-23 13:32:00,
2013-02-23 05:49:00,39.7,37.0,30.09,SSE,148,5.0,5.0,89,0.00,,,0.00,0,weatherlink.com 1.10,2013-02-23 13:49:00,
2013-02-23 06:02:00,40.2,37.0,30.09,SSW,195,2.0,6.0,88,0.00,,,0.00,0,weatherlink.com 1.10,2013-02-23 14:02:00,
2013-02-23 06:17:00,40.2,36.0,30.09,SSW,213,1.0,4.0,86,0.00,,,0.00,0,weatherlink.com 1.10,2013-02-23 14:17:00,
2013-02-23 06:32:00,39.2,35.0,30.09,SE,143,3.0,4.0,86,0.00,,,0.00,0,weatherlink.com 1.10,2013-02-23 14:32:00,
2013-02-23 06:47:00,38.7,35.0,30.10,NW,323,1.0,5.0,86,0.00,,,0.00,0,weatherlink.com 1.10,2013-02-23 14:47:00,
2013-02-23 07:02:00,39.0,35.0,30.11,WNW,286,1.0,7.0,85,0.00,,,0.00,9,weatherlink.com 1.10,2013-02-23 15:02:00,
2013-02-23 07:17:00,39.0,34.0,30.11,SW,233,3.0,10.0,82,0.00,,,0.00,18,weatherlink.com 1.10,2013-02-23 15:17:00,
2013-02-23 07:33:00,39.3,34.0,30.12,West,275,3.0,6.0,80,0.00,,,0.00,25,weatherlink.com 1.10,2013-02-23 15:33:00,
2013-02-23 07:48:00,39.3,33.0,30.13,WNW,296,2.0,9.0,79,0.00,,,0.00,30,weatherlink.com 1.10,2013-02-23 15:48:00,
2013-02-23 08:03:00,40.6,35.0,30.14,WSW,247,1.0,4.0,79,0.00,,,0.00,47,weatherlink.com 1.10,2013-02-23 16:03:00,
2013-02-23 08:18:00,40.9,34.0,30.14,NW,323,3.0,5.0,75,0.00,,,0.00,42,weatherlink.com 1.10,2013-02-23 16:18:00,
2013-02-23 08:33:00,42.0,34.0,30.16,NNW,335,1.0,8.0,74,0.00,,,0.00,295,weatherlink.com 1.10,2013-02-23 16:33:00,
2013-02-23 08:48:00,44.4,35.0,30.16,NW,320,3.0,6.0,70,0.00,,,0.00,345,weatherlink.com 1.10,2013-02-23 16:48:00,
2013-02-23 09:03:00,45.7,34.0,30.16,NNW,332,1.0,6.0,65,0.00,,,0.00,397,weatherlink.com 1.10,2013-02-23 17:03:00,
2013-02-23 09:18:00,47.8,35.0,30.16,NW,318,2.0,5.0,61,0.00,,,0.00,441,weatherlink.com 1.10,2013-02-23 17:18:00,
2013-02-23 09:33:00,48.7,35.0,30.16,West,268,2.0,4.0,59,0.00,,,0.00,485,weatherlink.com 1.10,2013-02-23 17:33:00,
2013-02-23 09:48:00,50.1,35.0,30.16,NW,319,1.0,5.0,56,0.00,,,0.00,520,weatherlink.com 1.10,2013-02-23 17:48:00,
2013-02-23 10:06:00,50.0,35.0,30.16,WNW,291,4.0,7.0,57,0.00,,,0.00,541,weatherlink.com 1.10,2013-02-23 18:06:00,
2013-02-23 10:19:00,51.5,33.0,30.16,WNW,286,2.0,5.0,50,0.00,,,0.00,570,weatherlink.com 1.10,2013-02-23 18:19:00,
2013-02-23 10:34:00,53.0,34.0,30.16,WNW,303,3.0,6.0,48,0.00,,,0.00,594,weatherlink.com 1.10,2013-02-23 18:34:00,
2013-02-23 10:49:00,53.9,34.0,30.15,NNW,338,6.0,8.0,47,0.00,,,0.00,610,weatherlink.com 1.10,2013-02-23 18:49:00,
2013-02-23 11:04:00,54.2,34.0,30.15,WNW,284,2.0,8.0,46,0.00,,,0.00,694,weatherlink.com 1.10,2013-02-23 19:04:00,
2013-02-23 11:19:00,54.1,32.0,30.15,West,273,3.0,6.0,44,0.00,,,0.00,691,weatherlink.com 1.10,2013-02-23 19:19:00,
2013-02-23 11:34:00,54.8,33.0,30.15,WNW,292,4.0,8.0,44,0.00,,,0.00,712,weatherlink.com 1.10,2013-02-23 19:34:00,
2013-02-23 11:49:00,56.3,33.0,30.15,WNW,295,3.0,8.0,41,0.00,,,0.00,726,weatherlink.com 1.10,2013-02-23 19:49:00,
2013-02-23 12:04:00,56.8,31.0,30.14,West,278,7.0,10.0,37,0.00,,,0.00,733,weatherlink.com 1.10,2013-02-23 20:04:00,
2013-02-23 12:19:00,57.0,31.0,30.13,WSW,250,7.0,9.0,37,0.00,,,0.00,724,weatherlink.com 1.10,2013-02-23 20:19:00,
2013-02-23 12:34:00,56.8,32.0,30.12,WSW,252,4.0,11.0,39,0.00,,,0.00,733,weatherlink.com 1.10,2013-02-23 20:34:00,
2013-02-23 12:49:00,57.6,32.0,30.12,WNW,293,2.0,10.0,38,0.00,,,0.00,733,weatherlink.com 1.10,2013-02-23 20:49:00,
2013-02-23 13:04:00,58.0,32.0,30.11,WSW,255,10.0,11.0,37,0.00,,,0.00,722,weatherlink.com 1.10,2013-02-23 21:04:00,
2013-02-23 13:19:00,58.4,31.0,30.10,NW,315,4.0,10.0,35,0.00,,,0.00,694,weatherlink.com 1.10,2013-02-23 21:19:00,
2013-02-23 13:34:00,58.5,31.0,30.10,WSW,255,6.0,11.0,36,0.00,,,0.00,691,weatherlink.com 1.10,2013-02-23 21:34:00,
2013-02-23 13:49:00,58.6,31.0,30.10,NW,318,6.0,9.0,35,0.00,,,0.00,668,weatherlink.com 1.10,2013-02-23 21:49:00,
2013-02-23 14:04:00,58.1,31.0,30.09,North,360,2.0,10.0,36,0.00,,,0.00,645,weatherlink.com 1.10,2013-02-23 22:04:00,
2013-02-23 14:19:00,58.5,31.0,30.09,WNW,290,6.0,9.0,35,0.00,,,0.00,617,weatherlink.com 1.10,2013-02-23 22:19:00,
2013-02-23 14:34:00,59.1,31.0,30.09,West,281,5.0,11.0,35,0.00,,,0.00,585,weatherlink.com 1.10,2013-02-23 22:34:00,
2013-02-23 14:50:00,60.1,32.0,30.09,WSW,243,3.0,8.0,35,0.00,,,0.00,547,weatherlink.com 1.10,2013-02-23 22:50:00,
2013-02-23 15:05:00,59.4,29.0,30.07,West,262,3.0,9.0,32,0.00,,,0.00,503,weatherlink.com 1.10,2013-02-23 23:05:00,
2013-02-23 15:20:00,59.7,30.0,30.07,NW,306,9.0,10.0,33,0.00,,,0.00,466,weatherlink.com 1.10,2013-02-23 23:20:00,
2013-02-23 15:35:00,59.6,31.0,30.07,West,281,5.0,8.0,34,0.00,,,0.00,424,weatherlink.com 1.10,2013-02-23 23:35:00,
2013-02-23 15:50:00,59.5,29.0,30.07,WNW,292,2.0,10.0,32,0.00,,,0.00,381,weatherlink.com 1.10,2013-02-23 23:50:00,
2013-02-23 16:05:00,58.4,30.0,30.07,NW,326,1.0,9.0,34,0.00,,,0.00,339,weatherlink.com 1.10,2013-02-24 00:05:00,
2013-02-23 16:20:00,57.6,31.0,30.07,WNW,286,4.0,9.0,37,0.00,,,0.00,279,weatherlink.com 1.10,2013-02-24 00:20:00,
2013-02-23 16:35:00,55.9,32.0,30.07,West,261,7.0,13.0,40,0.00,,,0.00,90,weatherlink.com 1.10,2013-02-24 00:35:00,
2013-02-23 17:05:00,52.8,33.0,30.08,West,281,8.0,9.0,47,0.00,,,0.00,30,weatherlink.com 1.10,2013-02-24 01:05:00,
2013-02-23 17:20:00,51.5,33.0,30.10,West,274,3.0,8.0,49,0.00,,,0.00,28,weatherlink.com 1.10,2013-02-24 01:20:00,
2013-02-23 17:35:00,50.3,33.0,30.09,NW,321,1.0,11.0,52,0.00,,,0.00,18,weatherlink.com 1.10,2013-02-24 01:35:00,
2013-02-23 17:50:00,49.0,33.0,30.10,WNW,285,4.0,7.0,55,0.00,,,0.00,11,weatherlink.com 1.10,2013-02-24 01:50:00,
2013-02-23 18:05:00,47.8,33.0,30.09,WNW,289,3.0,9.0,57,0.00,,,0.00,0,weatherlink.com 1.10,2013-02-24 02:05:00,
2013-02-23 18:21:00,47.0,33.0,30.11,NNW,336,2.0,8.0,58,0.00,,,0.00,0,weatherlink.com 1.10,2013-02-24 02:21:00,
2013-02-23 18:35:00,46.2,33.0,30.11,WNW,294,3.0,4.0,60,0.00,,,0.00,0,weatherlink.com 1.10,2013-02-24 02:35:00,
2013-02-23 18:50:00,44.4,33.0,30.11,South,173,1.0,5.0,64,0.00,,,0.00,0,weatherlink.com 1.10,2013-02-24 02:50:00,
2013-02-23 19:05:00,42.7,33.0,30.12,South,171,0.0,2.0,69,0.00,,,0.00,0,weatherlink.com 1.10,2013-02-24 03:05:00,
2013-02-23 19:20:00,42.1,33.0,30.12,South,169,1.0,2.0,70,0.00,,,0.00,0,weatherlink.com 1.10,2013-02-24 03:20:00,
2013-02-23 19:35:00,41.5,33.0,30.12,SSW,201,0.0,1.0,71,0.00,,,0.00,0,weatherlink.com 1.10,2013-02-24 03:35:00,
2013-02-23 19:50:00,40.8,33.0,30.13,SE,145,1.0,2.0,74,0.00,,,0.00,0,weatherlink.com 1.10,2013-02-24 03:50:00,
2013-02-23 20:20:00,40.0,33.0,30.13,SE,144,2.0,3.0,76,0.00,,,0.00,0,weatherlink.com 1.10,2013-02-24 04:20:00,
2013-02-23 20:35:00,39.6,33.0,30.13,SE,141,2.0,3.0,77,0.00,,,0.00,0,weatherlink.com 1.10,2013-02-24 04:35:00,
2013-02-23 20:50:00,39.4,33.0,30.14,SE,144,3.0,4.0,77,0.00,,,0.00,0,weatherlink.com 1.10,2013-02-24 04:50:00,
2013-02-23 21:07:00,39.5,33.0,30.13,SW,214,1.0,5.0,77,0.00,,,0.00,0,weatherlink.com 1.10,2013-02-24 05:07:00,
2013-02-23 21:20:00,39.7,32.0,30.13,SW,236,2.0,6.0,75,0.00,,,0.00,0,weatherlink.com 1.10,2013-02-24 05:20:00,
2013-02-23 21:50:00,40.3,32.0,30.15,East,92,0.0,5.0,71,0.00,,,0.00,0,weatherlink.com 1.10,2013-02-24 05:50:00,
2013-02-23 22:05:00,39.3,31.0,30.15,South,186,1.0,4.0,73,0.00,,,0.00,0,weatherlink.com 1.10,2013-02-24 06:05:00,
2013-02-23 22:20:00,39.3,31.0,30.16,East,91,1.0,7.0,72,0.00,,,0.00,0,weatherlink.com 1.10,2013-02-24 06:20:00,
2013-02-23 22:35:00,40.1,27.0,30.16,NNE,28,4.0,7.0,61,0.00,,,0.00,0,weatherlink.com 1.10,2013-02-24 06:35:00,
2013-02-23 22:50:00,43.6,25.0,30.16,North,9,4.0,8.0,48,0.00,,,0.00,0,weatherlink.com 1.10,2013-02-24 06:50:00,
2013-02-23 23:05:00,46.4,22.0,30.15,NNE,26,5.0,9.0,39,0.00,,,0.00,0,weatherlink.com 1.10,2013-02-24 07:05:00,
2013-02-23 23:20:00,46.9,23.0,30.15,North,5,3.0,10.0,39,0.00,,,0.00,0,weatherlink.com 1.10,2013-02-24 07:20:00,
2013-02-23 23:35:00,46.9,24.0,30.15,West,265,3.0,9.0,41,0.00,,,0.00,0,weatherlink.com 1.10,2013-02-24 07:35:00,
2013-02-23 23:50:00,43.3,28.0,30.16,WSW,256,1.0,3.0,55,0.00,,,0.00,0,weatherlink.com 1.10,2013-02-24 07:50:00,